Voltar ao catálogo

DMSP 5D-2 F11 DEB

AtivoPO
NORAD 29077·DEBRIS·🇺🇸 United States

Lançado Nov 28, 1991 de Vandenberg Space Force Base

Loading…

Próximas Passagens (próximas 24 horas)

TLE

AtualizadoSource: Space-Track

Época: Sep 14, 2026, 08:49 UTC

1 29077U 91082BY  26257.36749884  .00009858  00000-0  21113-2 0  9996
2 29077  98.6971  51.3342 0047612 255.4509 104.1405 14.58217509139285

Acompanhe DMSP 5D-2 F11 DEB em tempo real com AllMySat

Download on the App Store